This is the latest recevied weather packets stored in our database for station/object WA6ODQ-13. If no packets are shown the sender has not sent any weather packets the latest 10 day(s).
| Time | Temp. | Humidity | Pressure | Rain* | Wind** | Luminosity | Snow |
|---|---|---|---|---|---|---|---|
| 1777591937 | 28.89° C | 46% | 1009.5 hPa | 0 mm | - | 417 W/m² | - |
| 1777591632 | 29.44° C | 44% | 1009.4 hPa | 0 mm | - | 430 W/m² | - |
| 1777591329 | 29.44° C | 45% | 1009.7 hPa | 0 mm | - | 444 W/m² | - |
| 1777591025 | 28.33° C | 46% | 1009.7 hPa | 0 mm | - | 457 W/m² | - |
| 1777590720 | 28.89° C | 45% | 1009.6 hPa | 0 mm | - | 469 W/m² | - |
| 1777590416 | 28.33° C | 45% | 1009.8 hPa | 0 mm | - | 484 W/m² | - |
| 1777590114 | 28.89° C | 45% | 1009.8 hPa | 0 mm | - | 496 W/m² | - |
| 1777589810 | 28.33° C | 45% | 1009.8 hPa | 0 mm | - | 508 W/m² | - |
| 1777589510 | 28.89° C | 45% | 1010 hPa | 0 mm | - | 521 W/m² | - |
| 1777589209 | 28.33° C | 47% | 1009.9 hPa | 0 mm | - | 532 W/m² | - |
| 1777588906 | 28.33° C | 46% | 1010.2 hPa | 0 mm | - | 544 W/m² | - |
| 1777588602 | 28.33° C | 46% | 1010.1 hPa | 0 mm | - | 554 W/m² | - |
| 1777588297 | 27.78° C | 46% | 1010.2 hPa | 0 mm | - | 565 W/m² | - |
| 1777587993 | 28.33° C | 46% | 1010.2 hPa | 0 mm | - | 576 W/m² | - |
| 1777587689 | 27.78° C | 47% | 1010.3 hPa | 0 mm | - | 585 W/m² | - |
| 1777587389 | 27.78° C | 48% | 1010.4 hPa | 0 mm | - | 595 W/m² | - |
| 1777587085 | 27.78° C | 47% | 1010.5 hPa | 0 mm | - | 604 W/m² | - |
| 1777586781 | 27.78° C | 47% | 1010.8 hPa | 0 mm | - | 615 W/m² | - |
| 1777586476 | 27.78° C | 47% | 1010.8 hPa | 0 mm | - | 623 W/m² | - |
| 1777586172 | 27.78° C | 47% | 1010.9 hPa | 0 mm | - | 632 W/m² | - |
| 1777585870 | 27.22° C | 48% | 1010.8 hPa | 0 mm | - | 641 W/m² | - |
| 1777585565 | 27.22° C | 47% | 1010.8 hPa | 0 mm | - | 649 W/m² | - |
| 1777585261 | 26.67° C | 48% | 1010.8 hPa | 0 mm | - | 656 W/m² | - |
| 1777584955 | 26.67° C | 48% | 1011 hPa | 0 mm | - | 663 W/m² | - |
| 1777584653 | 26.67° C | 48% | 1011.1 hPa | 0 mm | - | 670 W/m² | - |
* Rain latest hour (hover to see other rain measurements)
** Current wind speed in m/s (hover to see current wind gust speed)